GEFSGL_850_meantemp_180.txt.gz
Temperature
19 19 19 19 18 18 18 18 18 18 18 18 18 17 17 17 17 17 17 17 16 16 16 16 16 16 16 16 16 16 16 16 15 15 14 14 14 14 14 14 14 14 14
19 19 19 19 19 18 18 18 18 18 18 18 17 17 17 17 17 17 17 16 16 16 16 16 16 16 16 16 16 16 16 15 15 15 14 14 14 14 14 13 13 13 13
19 19 19 19 18 18 18 18 18 18 18 17 17 17 17 17 17 17 16 16 16 16 16 16 16 16 16 16 15 15 15 15 15 14 14 13 13 13 13 13 13 13 13
20 19 19 19 18 18 18 18 18 18 17 17 17 17 17 17 17 17 16 16 16 16 15 15 15 15 15 15 15 15 15 15 14 14 14 13 13 13 13 13 12 12 12
19 19 19 19 18 18 18 18 18 17 17 17 17 17 17 17 16 16 16 16 15 15 15 15 15 15 15 15 14 14 14 14 14 13 13 13 13 12 12 12 12 12 12
19 19 19 18 18 18 18 18 18 17 17 17 17 16 16 16 16 16 16 15 15 15 15 15 14 14 14 14 14 14 14 14 13 13 13 13 12 12 12 12 12 12 11
19 19 19 18 18 18 17 17 17 17 17 17 16 16 16 16 16 16 15 15 15 15 14 14 14 14 14 14 14 14 13 13 13 13 13 12 12 12 12 12 12 12 12
19 19 18 18 18 18 17 17 17 17 16 16 16 16 16 16 16 16 15 15 14 14 14 14 14 13 13 13 13 13 13 13 13 12 12 12 12 12 12 12 12 11 11
19 18 18 18 18 17 17 17 17 16 16 15 15 15 15 15 15 15 15 14 14 14 14 13 13 13 13 13 13 13 13 12 12 12 12 12 12 12 11 11 11 11 11
18 18 18 18 17 17 17 17 16 16 15 15 15 15 15 15 15 15 14 14 14 13 13 13 13 13 13 12 12 12 12 12 12 12 11 11 11 11 11 11 11 11 11
18 18 17 17 17 17 16 16 16 15 15 15 15 15 15 15 14 14 14 14 13 13 13 13 13 12 12 12 12 12 11 11 11 11 11 11 11 11 10 10 10 10 10
18 17 17 17 16 16 16 16 15 15 15 15 14 14 14 14 14 14 14 13 13 13 12 12 12 12 12 12 11 11 11 11 11 10 10 10 10 10 10 10 10 10 10
17 17 16 16 16 15 15 15 15 15 14 14 14 14 14 14 13 13 13 13 12 12 12 12 12 11 11 11 11 11 11 10 10 10 10 10 10 10 10 10 10 10 10
17 17 16 16 16 15 15 15 15 14 14 14 14 14 13 13 13 13 13 12 12 12 11 11 11 11 11 11 11 10 10 10 10 10 10 10 9 9 9 9 9 9 9
16 16 16 15 15 15 15 15 14 14 14 14 14 13 13 13 13 13 12 12 12 11 11 11 11 11 10 10 10 10 10 9 9 9 9 9 9 9 9 9 9 9 9
16 16 15 15 15 15 14 14 14 14 13 13 13 13 13 12 12 12 12 12 11 11 11 10 10 10 10 10 10 9 9 9 9 9 9 9 9 9 9 9 9 8 8
16 15 15 15 15 14 14 14 14 13 13 13 13 13 12 12 12 12 11 11 11 11 10 10 10 10 10 9 9 9 9 9 9 9 9 8 9 9 9 9 8 8 8
15 15 15 14 14 14 14 14 13 13 13 13 12 12 12 12 12 11 11 11 10 10 10 10 9 9 9 9 9 9 9 9 9 8 8 8 8 8 8 8 8 8 8
14 14 14 14 14 14 14 13 13 13 13 13 12 12 12 12 11 11 11 10 10 10 10 10 9 9 9 9 9 9 9 9 8 8 8 8 8 8 8 8 8 8 8
14 14 14 14 14 13 13 13 13 13 12 12 12 12 12 11 11 11 10 10 10 10 9 9 9 9 9 9 9 8 8 8 8 8 8 8 8 8 8 8 8 8 8
13 13 13 13 13 13 13 13 13 12 12 12 12 11 11 11 11 11 10 10 10 9 9 9 9 9 9 9 8 8 8 8 8 8 8 7 7 7 7 7 7 7 7
13 13 13 13 13 13 13 12 12 12 12 11 11 11 11 11 10 10 10 10 9 9 9 9 8 8 8 8 8 8 8 7 7 7 7 7 7 7 7 7 7 7 7
12 13 12 12 12 12 12 12 12 12 11 11 11 11 11 10 10 10 9 9 9 9 9 8 8 8 8 8 8 7 7 7 7 7 7 7 7 7 7 7 7 7 7
12 12 12 12 12 12 12 11 11 11 11 11 11 10 10 10 9 9 9 9 9 8 8 8 8 8 8 8 7 7 7 7 7 6 6 6 6 6 6 6 6 6 6
12 12 12 11 11 11 11 11 11 11 10 10 10 10 9 9 9 9 9 9 8 8 8 8 7 7 7 7 7 7 7 6 6 6 6 6 6 6 6 6 6 6 6
11 11 11 11 11 11 10 10 10 10 10 10 9 9 9 9 9 8 8 8 8 8 7 7 7 7 7 6 6 6 6 6 6 6 6 5 5 5 5 5 5 5 5

GEFSGL_850_meantemp_186.txt.gz
Temperature
20 19 19 19 19 19 18 18 18 18 18 18 18 18 17 17 17 17 17 17 16 16 16 16 16 16 16 16 16 16 16 15 15 15 14 14 14 14 14 14 14 14 14
20 19 19 19 19 19 18 18 18 18 18 18 18 18 17 17 17 17 17 16 16 16 16 15 15 15 15 15 15 15 15 15 15 14 14 14 14 14 13 13 13 13 13
20 19 19 19 19 18 18 18 18 18 18 18 17 17 17 17 17 17 16 16 16 16 15 15 15 15 15 15 15 15 15 14 14 14 14 13 13 13 13 13 13 13 13
20 20 19 19 19 18 18 18 18 18 18 17 17 17 17 17 17 17 16 16 16 15 15 15 15 15 15 15 14 14 14 14 14 14 13 13 13 12 12 12 12 12 12
20 20 19 19 19 18 18 18 18 18 17 17 17 17 17 17 16 16 16 16 16 15 15 15 14 14 14 14 14 14 14 14 13 13 13 12 12 12 12 12 12 11 11
20 20 19 19 19 18 18 18 17 17 17 17 17 17 16 16 16 16 16 16 15 15 15 15 14 14 14 14 14 14 13 13 13 13 12 12 12 12 11 11 11 11 11
20 19 19 19 18 18 18 17 17 17 17 16 16 16 16 16 16 16 15 15 15 15 15 14 14 14 14 14 14 13 13 13 12 12 12 12 12 12 11 11 11 11 11
19 19 19 19 18 18 17 17 17 16 16 16 16 16 16 15 15 15 15 15 15 15 14 14 14 14 14 13 13 13 13 12 12 12 12 12 11 11 11 11 11 11 11
19 19 19 18 18 18 17 17 17 16 16 16 16 15 15 15 15 15 14 14 14 14 14 14 13 13 13 13 13 13 12 12 12 12 11 11 11 11 11 11 10 10 10
19 19 19 18 18 18 17 17 16 16 16 15 15 15 15 15 14 14 14 14 14 14 13 13 13 13 12 12 12 12 12 12 11 11 11 11 11 11 10 10 10 10 10
19 18 18 18 17 17 17 16 16 16 15 15 15 14 14 14 14 14 14 14 13 13 13 13 12 12 12 12 12 12 11 11 11 11 11 10 10 10 10 10 10 10 10
18 18 17 17 17 16 16 16 16 15 15 15 14 14 14 14 14 14 13 13 13 12 12 12 12 12 11 11 11 11 11 11 11 10 10 10 10 10 10 9 9 9 9
18 17 17 17 16 16 16 15 15 15 15 14 14 14 14 14 13 13 13 13 12 12 12 12 11 11 11 11 11 10 10 10 10 10 10 10 10 9 9 9 9 9 9
17 17 16 16 16 15 15 15 15 15 14 14 14 14 14 13 13 13 12 12 12 12 11 11 11 11 11 11 10 10 10 10 10 10 9 9 9 9 9 9 9 8 8
17 16 16 16 15 15 15 14 14 14 14 14 14 14 13 13 13 12 12 12 12 11 11 11 11 10 10 10 10 10 10 9 9 9 9 9 9 9 8 8 8 8 8
16 16 15 15 15 15 14 14 14 13 13 13 13 13 13 13 12 12 12 11 11 11 11 11 10 10 10 10 10 9 9 9 9 9 9 9 9 8 8 8 8 8 8
15 15 15 14 14 14 14 14 13 13 13 13 12 12 12 12 12 12 11 11 11 11 10 10 10 10 9 9 9 9 9 9 9 8 8 8 8 8 8 8 8 8 8
15 15 14 14 14 14 14 13 13 13 13 13 12 12 12 12 12 11 11 11 11 10 10 10 9 9 9 9 9 9 9 9 8 8 8 8 8 8 8 8 8 8 8
14 14 14 14 14 13 13 13 13 13 13 12 12 12 12 11 11 11 11 11 10 10 10 10 9 9 9 9 9 9 9 8 8 8 8 8 8 8 8 8 8 8 7
14 14 13 13 13 13 13 12 12 12 12 12 12 12 11 11 11 11 10 10 10 10 9 9 9 9 9 9 9 9 8 8 8 8 8 8 8 7 7 7 7 7 7
13 13 13 13 13 13 12 12 12 12 12 12 12 11 11 11 11 10 10 10 10 9 9 9 9 9 9 9 8 8 8 8 8 8 8 7 7 7 7 7 7 7 7
13 13 13 12 12 12 12 12 12 11 11 11 11 11 11 10 10 10 10 10 9 9 9 9 9 9 9 8 8 8 8 8 8 7 7 7 7 7 7 7 7 6 6
13 12 12 12 12 12 11 11 11 11 11 11 10 10 10 10 10 9 9 9 9 9 9 8 8 8 8 8 8 8 7 7 7 7 7 7 7 7 6 6 6 6 6
12 12 12 12 11 11 11 11 11 11 10 10 10 10 10 10 9 9 9 9 8 8 8 8 8 8 7 7 7 7 7 7 7 7 6 6 6 6 6 6 6 6 6
12 12 11 11 11 11 11 10 10 10 10 10 10 9 9 9 9 9 9 8 8 8 8 8 7 7 7 7 7 7 6 6 6 6 6 6 6 6 5 5 5 5 5
11 11 11 11 11 10 10 10 10 10 9 9 9 9 9 9 8 8 8 8 8 7 7 7 7 7 6 6 6 6 6 6 6 5 5 5 5 5 5 5 5 5 5

GEFSGL_850_meantemp_192.txt.gz
Temperature
20 19 19 19 19 18 18 18 18 18 18 18 17 17 17 17 17 17 16 16 16 16 16 16 15 15 15 15 15 15 15 15 14 14 14 14 14 14 14 14 14 14 14
20 19 19 19 18 18 18 18 18 18 18 17 17 17 17 17 17 16 16 16 16 16 16 16 15 15 15 15 15 15 14 14 14 14 14 13 13 13 13 13 13 13 13
20 19 19 19 18 18 18 18 17 17 17 17 17 17 17 17 16 16 16 16 16 16 16 15 15 15 15 15 14 14 14 14 14 14 13 13 13 12 12 12 12 12 12
20 19 19 19 19 18 18 18 17 17 17 17 17 17 17 16 16 16 16 15 15 15 15 15 15 15 14 14 14 14 14 14 13 13 13 12 12 12 12 12 12 12 12
20 19 19 19 19 18 18 17 17 17 17 17 17 17 16 16 16 16 16 15 15 15 15 15 15 14 14 14 14 14 14 13 13 13 12 12 12 12 12 11 11 11 11
20 19 19 19 18 18 18 17 17 17 17 17 16 16 16 16 16 15 15 15 15 15 15 15 14 14 14 14 14 13 13 13 13 13 12 12 12 12 11 11 11 11 10
20 19 19 19 18 18 18 17 17 17 17 17 16 16 16 15 15 15 15 15 15 15 14 14 14 14 14 14 13 13 13 13 12 12 12 12 12 11 11 11 11 11 10
20 19 19 19 18 18 18 17 17 17 17 16 16 16 15 15 15 15 14 14 14 14 14 14 14 13 13 13 13 13 13 12 12 12 12 12 11 11 11 11 10 10 10
19 19 19 19 18 18 18 17 17 17 16 16 16 15 15 15 14 14 14 14 14 14 13 13 13 13 13 13 13 13 12 12 12 12 11 11 11 11 11 10 10 10 10
19 19 18 18 18 18 17 17 17 16 16 15 15 15 14 14 14 14 14 13 13 13 13 13 13 13 12 12 12 12 12 12 11 11 11 11 11 10 10 10 10 10 9
19 18 18 18 17 17 17 16 16 16 15 15 15 14 14 14 14 14 13 13 13 13 13 12 12 12 12 12 12 12 11 11 11 11 10 10 10 10 10 10 9 9 9
18 18 18 17 17 17 16 16 16 15 15 14 14 14 14 14 13 13 13 13 13 12 12 12 12 12 11 11 11 11 11 10 10 10 10 10 10 10 9 9 9 9 9
18 17 17 17 16 16 16 16 15 15 15 14 14 14 13 13 13 13 12 12 12 12 12 11 11 11 11 11 10 10 10 10 10 10 10 10 9 9 9 9 9 9 9
17 17 17 16 16 16 15 15 15 15 14 14 14 13 13 13 12 12 12 12 12 11 11 11 11 11 10 10 10 10 10 10 10 9 9 9 9 9 9 9 9 8 8
17 16 16 16 15 15 15 14 14 14 14 14 13 13 13 13 12 12 12 12 12 11 11 11 10 10 10 10 10 10 10 9 9 9 9 9 9 9 9 8 8 8 8
16 16 15 15 15 15 14 14 14 13 13 13 13 13 12 12 12 12 11 11 11 11 11 10 10 10 10 10 10 10 9 9 9 9 9 9 9 8 8 8 8 8 8
15 15 15 14 14 14 14 14 13 13 13 12 12 12 12 12 12 11 11 11 11 10 10 10 10 10 10 10 9 9 9 9 9 8 8 8 8 8 8 8 8 8 7
15 14 14 14 14 14 13 13 13 13 12 12 12 12 12 11 11 11 11 11 10 10 10 10 10 9 9 9 9 9 9 8 8 8 8 8 8 8 7 7 7 7 7
14 14 14 13 13 13 13 13 12 12 12 12 12 11 11 11 11 11 10 10 10 10 10 10 9 9 9 9 9 9 9 8 8 8 8 8 7 7 7 7 7 7 7
14 13 13 13 13 13 12 12 12 12 11 11 11 11 11 11 11 10 10 10 10 10 9 9 9 9 9 8 8 8 8 8 8 8 8 7 7 7 7 7 7 7 7
13 13 13 12 12 12 12 12 12 11 11 11 11 11 10 10 10 10 10 10 9 9 9 9 9 8 8 8 8 8 8 8 8 7 7 7 7 7 7 7 7 6 7
12 12 12 12 12 12 11 11 11 11 11 11 10 10 10 10 10 9 9 9 9 9 9 8 8 8 8 8 7 7 7 7 7 7 7 7 7 6 6 6 6 6 6
12 12 12 12 11 11 11 11 11 10 10 10 10 10 10 9 9 9 9 9 8 8 8 8 8 8 8 7 7 7 7 7 7 6 6 6 6 6 6 6 6 6 6
12 11 11 11 11 11 11 10 10 10 10 10 9 9 9 9 9 9 8 8 8 8 8 8 8 7 7 7 7 7 6 6 6 6 6 6 5 5 5 5 5 5 5
11 11 11 11 10 10 10 10 10 9 9 9 9 9 8 8 8 8 8 8 8 8 7 7 7 7 7 6 6 6 6 6 5 5 5 5 5 5 5 5 5 5 5
11 10 10 10 10 10 10 9 9 9 9 9 8 8 8 8 8 8 7 7 7 7 7 7 7 6 6 6 6 6 5 5 5 5 5 5 4 4 4 4 4 4 4

GEFSGL_850_meantemp_198.txt.gz
Temperature
20 19 19 19 19 19 19 18 18 18 18 18 18 17 17 17 17 17 17 17 16 16 16 16 16 16 16 15 15 15 15 15 15 15 14 14 14 14 14 14 14 13 13
20 20 19 19 19 19 18 18 18 18 18 18 17 17 17 17 17 17 16 16 16 16 16 16 16 16 16 15 15 15 15 14 14 14 14 14 13 13 13 13 13 13 13
20 20 19 19 19 19 18 18 18 18 18 17 17 17 17 17 16 16 16 16 16 16 15 15 15 15 15 15 15 14 14 14 14 14 14 13 13 13 13 13 12 12 12
20 19 19 19 19 19 18 18 18 18 18 17 17 17 17 16 16 16 16 16 16 15 15 15 15 15 15 15 14 14 14 14 14 14 13 13 13 13 12 12 12 12 12
19 19 19 19 19 18 18 18 18 18 17 17 17 17 17 16 16 16 15 15 15 15 15 15 15 15 15 14 14 14 14 14 14 13 13 13 12 12 12 12 12 12 11
19 19 19 19 19 18 18 18 18 18 17 17 17 16 16 16 16 16 15 15 15 15 15 14 14 14 14 14 14 14 14 13 13 13 13 12 12 12 12 12 12 11 11
19 19 19 18 18 18 18 17 17 17 17 17 16 16 16 16 16 15 15 15 15 14 14 14 13 14 14 14 14 14 13 13 13 13 12 12 12 12 12 11 11 11 11
19 19 18 18 18 17 17 17 17 17 17 16 16 16 16 16 15 15 15 14 14 14 14 14 14 14 13 13 13 13 13 13 13 12 12 12 12 12 11 11 11 11 11
18 18 18 18 17 17 17 17 17 17 16 16 16 16 15 15 15 15 14 14 14 14 13 13 13 13 13 13 13 12 12 12 12 12 12 12 12 11 11 11 11 11 11
18 18 18 18 17 17 17 17 16 16 16 16 15 15 15 15 15 15 14 13 13 13 13 13 13 13 13 13 12 12 12 12 11 11 11 11 11 11 11 11 10 10 10
18 18 18 17 17 17 17 16 16 16 15 15 15 15 14 14 14 14 14 13 13 13 13 13 13 13 13 12 12 12 12 11 11 11 11 11 11 10 10 10 10 10 10
17 17 17 17 17 16 16 16 15 15 15 15 14 14 14 14 14 14 14 13 13 12 12 12 12 12 12 12 12 12 11 11 11 11 11 11 10 10 10 10 10 10 9
16 16 16 16 16 16 16 15 15 15 15 15 14 14 14 13 13 13 13 13 13 12 12 12 12 12 12 11 11 11 11 11 11 11 11 10 10 10 10 10 10 9 9
16 16 16 16 16 15 15 15 15 15 15 14 14 14 13 13 13 12 12 12 12 12 12 12 12 11 11 11 11 11 10 10 10 10 10 10 10 10 10 10 10 9 9
15 15 15 15 15 15 15 14 14 14 14 14 14 13 13 13 13 12 12 12 12 11 11 11 11 11 11 10 10 10 10 10 10 10 10 10 10 10 9 9 9 9 9
15 14 14 14 14 14 14 14 14 14 13 13 13 13 13 13 12 12 12 12 11 11 11 11 10 10 10 10 10 10 10 10 9 9 9 9 9 9 9 9 9 9 9
14 14 14 14 14 14 14 14 13 13 13 13 13 13 12 12 12 12 11 11 11 11 10 10 10 10 10 10 10 10 9 9 9 9 9 9 9 9 9 9 9 9 9
14 14 14 14 14 13 13 13 13 13 12 12 12 12 12 12 11 11 11 10 10 10 10 10 10 10 9 9 9 9 9 9 9 9 9 9 9 9 9 9 8 8 8
13 13 13 13 13 13 13 13 13 12 12 12 12 11 11 11 11 10 10 10 10 10 10 9 9 9 9 9 9 8 8 8 8 8 8 8 8 8 8 8 8 8 8
13 13 13 13 13 12 12 12 12 12 12 11 11 11 11 10 10 10 9 9 9 9 9 9 9 9 8 8 8 8 8 8 8 8 8 8 8 8 8 8 8 8 8
12 12 12 12 12 12 12 12 12 12 11 11 11 11 10 10 10 10 9 9 9 9 8 8 8 8 8 8 8 8 8 8 7 7 7 7 7 7 7 7 7 7 7
12 12 12 12 12 12 12 11 11 11 11 11 10 10 10 10 9 9 9 9 9 8 8 8 8 8 8 8 8 7 7 7 7 7 7 7 7 7 7 7 7 7 7
12 12 12 11 11 11 11 11 11 11 10 10 10 10 9 9 9 9 8 8 8 8 8 8 8 7 7 7 7 7 7 7 7 6 6 6 6 6 6 6 6 6 6
11 11 11 11 11 11 11 11 10 10 10 10 9 9 9 9 8 8 8 8 8 8 7 7 7 7 7 7 7 6 6 6 6 6 6 6 6 6 6 6 6 6 6
11 11 11 11 11 10 10 10 10 10 10 9 9 9 9 8 8 8 8 8 7 7 7 7 7 7 7 6 6 6 6 6 6 6 5 5 5 5 5 5 6 6 5
11 10 10 10 10 10 10 10 9 9 9 9 9 8 8 8 8 8 8 7 7 7 7 7 6 6 6 6 6 6 6 6 6 5 5 5 5 5 5 5 5 5 5

GEFSGL_850_meantemp_204.txt.gz
Temperature
20 20 20 20 20 19 19 19 19 19 19 19 18 18 18 18 18 17 17 17 17 17 17 17 16 16 16 16 16 16 16 16 15 15 15 15 15 15 15 15 14 14 14
20 20 20 20 20 19 19 19 19 19 19 18 18 18 18 18 17 17 17 17 17 16 16 16 16 16 16 16 16 16 15 15 15 15 15 15 14 14 14 14 14 14 14
20 20 20 19 19 19 19 19 19 19 19 18 18 18 18 17 17 17 17 17 16 16 16 16 16 16 16 16 15 15 15 15 15 15 15 14 14 14 14 14 13 13 13
20 20 20 19 19 19 19 19 19 19 18 18 18 18 17 17 17 17 17 16 16 16 16 16 16 16 16 15 15 15 15 15 14 14 14 14 13 13 13 13 13 13 13
20 20 20 19 19 19 19 19 18 18 18 18 18 17 17 17 17 17 16 16 16 16 16 16 15 15 15 15 15 15 15 14 14 14 14 13 13 13 13 13 12 12 12
20 20 19 19 19 19 18 18 18 18 18 18 17 17 17 17 17 17 16 16 16 16 16 15 15 15 15 15 14 14 14 14 14 14 13 13 13 13 13 12 12 12 12
20 19 19 19 19 19 18 18 18 18 17 17 17 17 17 17 17 17 16 16 16 16 15 15 14 14 14 14 14 14 14 14 13 13 13 13 13 13 12 12 12 12 12
19 19 19 19 18 18 18 18 17 17 17 17 17 17 17 17 16 16 16 16 16 15 15 15 14 14 14 14 14 14 13 13 13 13 13 13 13 13 12 12 12 12 12
19 19 18 18 18 18 18 17 17 17 17 17 17 17 17 17 16 16 16 15 15 15 14 14 14 14 14 14 13 13 13 13 13 13 13 13 13 12 12 12 12 11 11
18 18 18 18 18 18 18 17 17 17 17 16 16 16 16 16 16 16 16 15 15 14 14 14 14 14 14 14 13 13 13 13 13 13 13 12 12 12 12 12 11 11 11
18 18 18 18 17 17 17 17 17 17 16 16 16 16 16 16 16 16 15 15 14 14 14 14 14 14 13 13 13 13 13 12 12 12 12 12 12 12 12 12 11 11 11
18 17 17 17 17 17 17 17 16 16 16 16 15 15 15 15 15 15 15 14 14 14 14 13 13 13 13 13 13 12 12 12 12 12 12 12 12 12 11 11 11 11 11
17 17 17 17 16 16 16 16 16 16 15 15 15 15 15 15 15 15 14 14 14 14 13 13 13 13 13 13 12 12 12 12 11 11 11 11 11 11 11 11 11 11 11
17 17 16 16 16 16 16 16 15 15 15 15 15 15 14 14 14 14 14 14 13 13 13 13 13 12 12 12 12 12 11 11 11 11 11 11 11 11 11 11 11 10 10
16 16 16 16 16 16 15 15 15 15 15 15 15 14 14 14 14 14 14 13 13 13 13 12 12 12 12 11 11 11 11 11 11 11 11 10 10 10 10 10 10 10 10
16 15 15 15 15 15 15 15 15 15 15 14 14 14 14 14 14 13 13 13 13 13 12 12 11 11 11 11 11 11 11 10 10 10 10 10 10 10 10 10 10 10 10
15 15 15 15 15 14 14 14 14 14 14 14 14 14 14 13 13 13 13 13 12 12 11 11 11 11 10 10 10 10 10 10 10 10 10 10 10 10 9 9 9 9 9
15 15 15 14 14 14 14 14 14 13 13 13 13 13 13 13 13 13 12 12 11 11 11 11 10 10 10 10 10 10 10 10 10 9 9 9 9 9 9 9 9 9 9
14 14 14 14 14 14 13 13 13 13 13 13 12 12 12 12 12 12 12 11 11 11 10 10 10 10 10 10 10 10 9 9 9 9 9 9 9 9 8 8 8 8 8
14 14 14 14 13 13 13 13 13 12 12 12 12 12 12 11 11 11 11 11 10 10 10 10 10 9 9 9 9 9 9 9 9 9 8 8 8 8 8 8 8 8 8
13 13 13 13 13 13 13 13 12 12 12 12 12 11 11 11 11 10 10 10 10 10 10 10 9 9 9 9 9 9 9 8 8 8 8 8 8 8 8 8 8 8 8
13 13 13 13 13 13 13 12 12 12 12 11 11 11 11 11 10 10 10 10 10 9 9 9 9 9 8 8 8 8 8 8 8 8 8 8 7 7 7 7 7 7 7
12 13 12 12 12 12 12 12 12 12 11 11 11 10 10 10 10 10 9 9 9 9 9 9 8 8 8 8 8 8 8 8 8 7 7 7 7 7 7 7 7 7 7
12 12 12 12 12 12 12 11 11 11 11 11 10 10 10 10 10 9 9 9 9 9 9 8 8 8 8 8 8 7 7 7 7 7 7 7 7 7 7 7 7 7 7
12 12 12 12 11 11 11 11 11 11 11 10 10 10 10 9 9 9 9 9 8 8 8 8 8 8 7 7 7 7 7 7 7 7 7 6 6 6 6 6 6 6 6
11 11 11 11 11 11 11 11 11 11 10 10 10 10 9 9 9 9 9 8 8 8 8 8 7 7 7 7 7 7 7 7 7 6 6 6 6 6 6 6 6 6 6

GEFSGL_850_meantemp_210.txt.gz
Temperature
21 21 20 20 20 20 19 19 19 19 19 18 18 18 18 18 18 18 17 17 17 17 17 16 16 16 16 16 16 16 15 15 15 15 15 14 14 14 14 14 14 14 14
21 20 20 20 20 19 19 19 19 19 18 18 18 18 18 18 18 17 17 17 17 17 17 16 16 16 16 16 16 15 15 15 15 15 15 14 14 14 14 14 14 14 13
21 20 20 20 19 19 19 19 19 19 18 18 18 18 18 18 17 17 17 17 17 17 17 16 16 16 16 16 16 15 15 15 14 14 14 14 14 14 14 14 13 13 13
20 20 20 20 19 19 19 19 18 18 18 18 18 18 18 18 17 17 17 17 17 17 16 16 16 16 16 16 15 15 15 14 14 14 14 13 13 13 13 13 13 13 13
20 20 20 20 19 19 18 18 18 18 18 18 18 17 17 17 17 17 17 17 16 16 16 16 16 16 16 15 15 15 14 14 14 14 14 13 13 13 13 13 13 12 12
20 20 19 19 19 18 18 18 18 18 18 18 17 17 17 17 17 17 16 16 16 16 16 16 16 15 15 15 15 15 14 14 14 14 13 13 13 13 13 13 12 12 12
19 19 19 18 18 18 18 18 17 17 18 17 17 17 17 17 17 16 16 16 16 16 16 15 15 15 15 15 14 14 14 14 13 13 13 13 13 13 13 12 12 12 12
19 19 19 18 18 18 18 17 17 17 17 17 17 17 17 17 16 16 16 16 15 15 15 15 15 15 15 14 14 14 14 13 13 13 13 13 13 13 13 12 12 12 12
18 18 18 18 18 18 18 17 17 17 17 17 16 16 16 16 16 16 15 15 15 15 15 14 14 14 14 14 14 13 13 13 13 13 13 13 13 12 12 12 12 11 11
18 18 18 18 18 18 18 17 17 17 17 16 16 16 16 16 16 15 15 15 15 15 14 14 14 14 14 14 13 13 13 13 13 13 13 12 12 12 12 12 12 11 11
18 18 18 18 17 17 17 17 17 17 16 16 16 16 16 15 15 15 15 15 15 14 14 14 14 14 13 13 13 13 13 13 12 12 12 12 12 12 12 11 11 11 11
18 18 17 17 17 17 17 16 16 16 16 16 15 15 15 15 15 14 14 14 14 14 14 14 14 13 13 13 13 13 12 12 12 12 12 12 11 11 11 11 11 11 11
17 17 17 17 17 16 16 16 16 16 15 15 15 15 15 15 15 14 14 14 14 13 13 13 13 13 13 12 12 12 12 12 11 11 11 11 11 11 11 10 10 10 10
16 16 16 16 16 16 16 15 15 15 15 15 15 14 14 14 14 14 14 14 13 13 13 13 12 12 12 12 12 12 11 11 11 11 11 11 10 10 10 10 10 10 10
16 16 15 15 15 15 15 15 15 15 15 15 14 14 14 14 14 13 13 13 13 13 12 12 12 12 11 11 11 11 11 11 10 10 10 10 10 10 10 10 10 10 9
15 15 15 15 15 14 14 14 14 14 14 14 14 14 14 13 13 13 13 13 13 12 12 12 12 11 11 11 11 11 10 10 10 10 10 10 10 9 9 9 9 9 9
15 14 14 14 14 14 14 14 14 14 13 13 13 13 13 13 13 13 12 12 12 11 11 11 11 11 11 11 11 10 10 10 10 9 9 9 9 9 9 9 9 9 9
14 14 14 14 14 14 13 13 13 13 13 13 13 12 12 12 12 12 12 11 11 11 10 10 10 10 10 10 10 10 10 10 9 9 9 9 9 9 8 8 8 8 8
14 13 13 13 13 13 13 13 13 12 12 12 12 12 11 11 11 11 11 11 11 11 10 10 10 10 10 10 10 10 9 9 9 9 9 9 8 8 8 8 8 8 8
13 13 13 13 13 13 13 12 12 12 12 12 11 11 11 11 11 11 11 11 10 10 10 10 10 10 9 9 9 9 9 9 9 9 8 8 8 8 8 8 8 7 7
13 12 12 12 12 12 12 12 12 12 11 11 11 11 11 11 11 11 10 10 10 10 10 10 9 9 9 9 9 8 8 8 8 8 8 8 8 8 7 7 7 7 7
12 12 12 12 12 12 11 11 11 11 11 11 11 10 10 10 10 10 10 10 10 9 9 9 9 9 9 8 8 8 8 8 8 8 7 7 7 7 7 7 7 7 7
12 12 11 11 11 11 11 11 11 11 11 11 10 10 10 10 10 10 9 9 9 9 9 9 8 8 8 8 8 8 8 8 8 7 7 7 7 7 7 7 7 7 7
11 11 11 11 11 11 11 11 11 10 10 10 10 10 10 10 9 9 9 9 9 9 8 8 8 8 8 8 7 7 7 7 7 7 7 7 7 6 6 6 6 6 6
11 11 11 11 11 11 11 11 10 10 10 10 10 10 9 9 9 9 9 8 8 8 8 8 8 7 7 7 7 7 7 7 7 7 7 6 6 6 6 6 6 6 6
11 11 11 11 11 10 10 10 10 10 10 10 10 9 9 9 9 8 8 8 8 8 7 7 7 7 7 7 7 7 7 6 6 6 6 6 6 6 6 6 6 5 5

GEFSGL_850_meantemp_216.txt.gz
Temperature
21 20 20 20 20 19 19 19 18 18 18 18 18 18 18 17 17 17 17 17 17 17 16 16 16 16 16 16 15 15 15 15 15 14 14 14 14 14 14 14 14 14 14
21 20 20 20 19 19 19 19 18 18 18 18 18 18 18 17 17 17 17 17 17 17 16 16 16 16 16 16 15 15 15 15 15 14 14 14 14 14 13 13 13 13 13
20 20 20 19 19 19 19 18 18 18 18 17 17 17 17 17 17 17 17 17 17 17 16 16 16 16 16 15 15 15 15 15 14 14 14 14 14 13 13 13 13 13 13
20 20 19 19 19 19 18 18 18 18 17 17 17 17 17 17 17 17 17 17 17 17 16 16 16 16 15 15 15 15 15 15 14 14 13 13 13 13 13 13 13 13 13
19 19 19 19 18 18 18 18 18 17 17 17 17 17 17 17 17 17 17 16 16 16 16 16 16 16 15 15 15 15 15 14 14 14 13 13 13 13 13 12 12 12 12
19 19 18 18 18 18 18 18 18 17 17 17 17 17 17 17 16 16 16 16 16 16 16 16 15 15 15 15 15 14 14 14 14 13 13 13 13 13 12 12 12 12 12
19 18 18 18 18 18 17 17 17 17 17 17 17 17 17 16 16 16 16 15 15 15 15 15 15 15 15 14 14 14 14 14 13 13 13 13 13 13 12 12 12 12 12
19 18 18 18 18 17 17 17 17 17 17 17 17 16 16 16 16 16 16 15 15 15 15 15 15 14 14 14 14 14 14 13 13 13 13 13 12 12 12 12 12 12 12
18 18 18 18 17 17 17 17 17 17 17 16 16 16 16 16 16 16 15 15 15 15 14 14 14 14 14 14 14 14 13 13 13 13 13 12 12 12 12 12 12 11 11
18 18 18 17 17 17 17 17 17 16 16 16 16 16 16 16 16 15 15 15 14 14 14 14 14 14 14 13 13 13 13 13 13 12 12 12 12 12 12 12 11 11 11
17 17 17 17 17 17 17 16 16 16 16 16 15 15 15 15 15 15 15 14 14 14 14 14 14 13 13 13 13 13 13 13 12 12 12 12 12 11 11 11 11 11 11
17 17 17 16 16 16 16 16 16 16 15 15 15 15 15 15 15 15 14 14 14 14 14 13 13 13 13 13 13 12 12 12 12 12 11 11 11 11 11 11 11 11 10
16 16 16 16 15 15 15 15 15 15 15 15 15 15 15 15 15 14 14 14 13 13 13 13 13 12 12 12 12 12 12 12 12 12 11 11 11 11 10 10 10 10 10
15 15 15 15 15 15 15 15 14 14 14 14 14 14 14 14 14 14 14 13 13 13 13 12 12 12 12 12 12 12 11 11 11 11 11 11 11 10 10 10 10 10 9
15 15 15 15 15 14 14 14 14 14 14 14 14 14 14 13 13 13 13 13 13 12 12 12 12 11 11 11 11 11 11 11 11 11 11 10 10 10 10 9 9 9 9
14 14 14 14 14 14 14 13 13 13 13 13 13 13 13 13 13 12 12 12 12 12 11 11 11 11 11 11 11 11 11 11 10 10 10 10 10 9 9 9 9 9 9
14 14 13 13 13 13 13 13 13 12 12 12 12 12 12 12 12 12 12 11 11 11 11 11 11 11 10 10 10 10 10 10 10 10 10 9 9 9 9 9 9 8 8
13 13 13 13 13 13 13 13 12 12 12 12 12 12 12 12 11 11 11 11 11 11 10 10 10 10 10 10 9 9 9 9 9 9 9 9 9 9 8 8 8 8 8
13 13 13 13 12 12 12 12 12 11 11 11 11 11 11 11 11 11 10 10 10 10 10 10 10 10 9 9 9 9 9 9 9 8 8 8 8 8 8 8 8 8 7
12 12 12 12 12 12 12 11 11 11 11 11 11 11 11 10 10 10 10 10 10 10 10 9 9 9 9 9 9 8 8 8 8 8 8 8 8 7 7 7 7 7 7
12 12 12 12 12 11 11 11 11 11 11 11 11 10 10 10 10 10 10 10 9 9 9 9 9 9 9 8 8 8 8 8 8 8 8 7 7 7 7 7 7 7 7
12 12 12 11 11 11 11 11 11 10 10 10 10 10 10 10 10 9 9 9 9 9 9 9 9 8 8 8 8 8 8 8 8 7 7 7 7 7 7 7 7 7 6
11 11 11 11 11 11 10 10 10 10 10 10 10 10 10 9 9 9 9 9 9 8 8 8 8 8 8 8 8 7 7 7 7 7 7 7 7 6 6 6 6 6 6
11 11 11 11 11 11 10 10 10 10 10 10 9 9 9 9 9 9 9 8 8 8 8 8 7 7 7 7 7 7 7 7 7 7 7 6 6 6 6 6 6 6 6
10 10 10 10 10 10 10 10 10 9 9 9 9 9 9 9 8 8 8 8 8 8 7 7 7 7 7 7 7 7 6 6 6 6 6 6 6 6 6 6 6 6 6
10 10 10 10 10 10 10 10 9 9 9 9 9 9 9 9 8 8 8 8 8 7 7 7 7 7 7 7 6 6 6 6 6 6 6 6 6 6 5 5 5 5 5

GEFSGL_850_meantemp_222.txt.gz
Temperature
21 20 20 20 20 19 19 19 18 18 18 18 18 18 17 17 17 17 17 17 17 17 17 17 17 17 16 16 16 16 16 16 16 16 15 15 14 14 14 14 14 14 14
20 20 20 20 19 19 19 19 19 18 18 18 18 18 17 17 17 17 17 17 17 17 17 17 17 16 16 16 16 16 16 16 15 15 15 15 14 14 14 14 14 14 14
20 19 19 19 19 19 19 18 18 18 18 18 18 17 17 17 17 17 17 17 17 17 17 17 17 16 16 16 16 16 16 15 15 15 15 14 14 14 14 14 13 13 13
19 19 19 19 19 18 18 18 18 18 18 17 17 17 17 17 17 16 16 16 16 16 16 17 17 16 16 16 16 16 15 15 15 15 15 15 14 14 14 14 13 13 13
19 19 19 19 18 18 18 18 18 18 17 17 17 17 17 17 16 16 16 16 16 16 16 16 16 16 16 16 16 15 15 15 15 15 15 15 14 14 14 13 13 13 13
18 18 18 18 18 18 18 18 17 17 17 17 17 17 16 16 16 16 16 16 16 16 16 16 16 16 16 16 16 15 15 15 15 15 15 14 14 14 13 13 13 13 13
18 18 18 18 18 18 17 17 17 17 17 17 17 17 16 17 16 16 16 16 16 16 15 15 15 16 16 15 15 15 15 15 15 14 14 14 14 13 13 13 13 13 12
17 17 17 18 17 17 17 17 17 16 16 16 16 16 16 16 16 16 16 15 15 15 15 15 15 15 15 15 15 14 14 14 14 14 14 14 13 13 13 13 13 12 12
17 17 17 17 17 17 17 17 16 16 16 16 16 16 16 16 16 16 16 15 15 15 15 15 15 15 15 15 14 14 14 14 14 14 14 13 13 13 13 12 12 12 12
17 17 17 17 16 16 16 16 16 16 16 16 16 16 16 16 16 16 15 15 14 14 14 14 14 14 14 14 14 13 13 13 13 13 13 13 13 13 13 12 12 12 12
16 16 16 16 16 16 16 16 16 15 15 15 15 15 15 15 15 15 15 15 14 14 14 14 14 14 14 14 14 13 13 13 13 13 13 13 12 12 12 12 12 12 12
16 15 16 16 16 15 15 15 15 15 15 15 15 15 15 15 15 14 14 14 14 14 14 14 13 14 14 13 13 13 13 13 12 12 12 12 12 12 12 12 12 11 11
15 15 15 15 15 15 15 15 15 15 15 15 14 14 14 14 14 14 14 14 14 14 13 13 13 13 13 13 13 12 12 12 12 12 12 12 12 12 11 11 11 11 11
15 15 14 14 14 14 14 14 14 14 14 14 14 14 14 13 13 14 13 13 13 13 13 13 13 13 12 12 12 12 12 12 12 12 11 11 11 11 11 11 11 11 11
14 14 14 14 14 14 14 14 14 14 14 14 13 13 13 13 13 13 13 13 13 12 12 12 12 12 11 11 11 11 11 11 11 11 11 11 11 11 11 10 10 10 10
13 14 14 14 13 13 13 13 13 13 13 13 13 13 12 12 12 12 12 12 12 12 12 11 11 11 11 11 11 11 10 11 11 11 11 11 10 10 10 10 10 10 10
13 13 13 13 13 13 13 13 13 12 13 13 13 12 12 12 12 12 12 12 11 11 11 11 11 11 11 10 10 10 10 10 10 10 10 10 10 10 10 10 10 10 10
12 12 13 13 13 13 12 12 12 12 12 12 12 12 12 11 11 11 11 11 11 10 10 10 10 10 10 10 10 10 10 9 9 9 9 9 9 9 9 9 9 9 9
12 12 12 12 12 12 12 12 12 12 12 12 11 11 11 11 11 11 11 10 10 10 10 10 10 10 10 9 9 9 9 9 9 9 9 9 9 9 9 9 9 9 9
12 12 12 12 12 12 12 12 12 11 11 11 11 11 11 10 10 10 10 10 10 10 10 10 9 9 9 9 9 9 9 8 8 8 8 8 8 8 8 8 9 9 9
11 11 11 11 11 11 11 11 11 11 11 11 10 10 10 10 10 10 10 10 10 9 9 9 9 9 9 8 8 8 8 8 8 8 8 8 8 8 8 8 8 8 8
11 11 11 11 11 11 11 11 11 11 10 10 10 10 10 10 10 10 10 10 9 9 9 9 9 8 8 8 8 8 8 8 8 8 8 8 8 8 8 8 8 8 8
10 11 10 10 10 10 10 10 10 10 10 10 10 10 10 10 10 9 9 9 9 9 8 8 8 8 8 7 7 7 8 8 8 8 8 8 8 8 8 8 8 8 8
10 10 10 10 10 10 10 10 10 10 10 10 10 10 10 9 9 9 9 9 9 9 8 8 8 8 7 7 7 7 7 7 7 7 7 7 7 7 7 7 7 7 7
10 10 10 10 10 10 10 10 10 10 10 10 10 9 9 9 9 9 9 9 8 8 8 8 7 7 7 7 7 7 7 7 7 7 7 7 7 7 7 7 7 7 7
10 10 10 10 10 10 10 10 10 10 10 9 9 9 9 9 9 9 8 8 8 8 8 7 7 7 7 6 6 7 7 7 7 6 6 6 6 6 6 6 6 6 6

GEFSGL_850_meantemp_228.txt.gz
Temperature
20 20 20 20 20 20 19 19 19 19 19 18 18 18 18 18 18 17 17 17 17 17 17 17 17 17 17 17 17 17 17 17 17 17 17 17 16 16 16 16 15 15 15
20 20 20 19 19 19 19 19 19 19 18 18 18 18 18 18 18 17 17 17 17 17 17 17 17 17 17 17 17 17 17 17 17 16 16 16 16 16 16 15 15 15 15
20 20 19 19 19 19 19 19 19 19 18 18 18 18 18 17 17 17 17 17 17 17 17 17 17 17 17 17 17 17 17 17 16 16 16 16 16 16 15 15 15 14 14
20 19 19 19 19 19 19 19 19 18 18 18 18 18 17 17 17 17 17 17 17 17 17 17 17 17 17 17 17 17 16 16 16 16 16 16 15 15 15 15 14 14 14
19 19 19 19 19 19 19 18 18 18 18 18 18 17 17 17 17 17 17 17 17 17 17 17 17 17 17 16 16 16 16 16 16 16 16 16 15 15 15 15 14 14 14
19 19 19 18 18 18 18 18 18 18 18 18 17 17 17 17 17 17 17 17 17 17 16 16 16 16 16 16 16 16 16 16 16 16 16 15 15 15 15 15 14 14 14
19 19 18 18 18 18 18 17 17 17 17 17 17 17 17 17 17 17 17 16 16 16 16 16 16 16 16 16 16 16 16 16 15 15 15 15 15 15 15 15 14 14 14
19 18 18 17 17 17 17 17 17 17 17 17 17 17 16 16 16 16 16 16 16 16 16 16 16 16 16 16 15 15 15 15 15 15 15 15 15 15 14 14 14 14 14
18 17 17 17 17 17 16 16 16 17 17 16 16 16 16 16 16 16 16 16 15 16 16 16 15 15 15 15 15 15 15 15 15 15 15 15 15 14 14 14 14 13 13
17 17 17 16 16 16 16 16 16 16 16 16 16 16 16 16 16 16 16 15 15 15 15 15 15 15 15 15 14 14 14 15 14 14 14 14 14 14 14 14 13 13 13
16 16 16 16 16 16 16 16 16 16 15 15 15 15 15 16 16 16 15 15 15 15 15 14 15 15 15 14 14 14 14 14 14 14 14 14 14 14 14 14 13 13 13
16 16 16 16 16 15 15 15 15 15 15 15 15 15 15 15 15 15 15 15 14 14 14 14 14 14 14 14 14 14 14 13 13 13 13 13 13 13 13 13 13 13 13
15 15 15 15 15 15 15 15 15 15 15 15 14 14 14 14 15 15 15 14 14 14 14 13 13 13 13 13 13 13 13 13 13 12 12 12 13 13 12 12 12 12 12
15 15 14 14 15 15 14 14 14 14 14 14 14 14 14 14 14 14 14 13 13 13 13 13 13 13 13 13 13 13 13 13 12 12 12 12 12 12 12 12 12 12 12
14 14 14 14 14 14 14 14 14 14 14 14 14 14 14 13 13 14 13 13 13 13 13 12 12 12 12 12 12 12 12 12 12 12 12 11 11 11 11 11 11 11 11
13 13 13 13 14 14 14 14 14 14 14 14 14 14 14 13 13 13 13 13 13 12 12 12 12 12 12 12 12 12 12 12 12 11 11 11 11 11 11 11 11 11 11
13 13 13 13 13 13 13 14 14 14 14 13 13 13 13 13 13 13 12 12 12 12 12 12 11 11 11 11 11 11 11 11 11 11 11 11 10 10 10 10 10 10 10
13 13 13 13 13 13 13 13 13 13 13 13 13 13 13 12 12 12 12 12 11 11 11 11 11 11 11 11 11 11 11 11 10 10 10 10 10 10 10 10 10 10 10
12 12 12 12 12 13 13 13 13 13 13 13 12 12 12 12 12 12 11 11 11 11 11 11 11 11 11 11 11 11 10 10 10 10 10 10 10 10 10 10 10 10 10
12 12 12 12 12 12 12 12 12 12 12 12 12 12 12 12 11 11 11 11 11 11 11 11 11 11 11 10 10 10 10 10 10 10 10 9 9 9 9 9 9 9 9
12 12 12 12 12 12 12 12 12 12 12 12 12 12 12 11 11 11 11 11 11 11 10 10 10 10 10 10 10 10 10 9 9 9 9 9 9 9 9 9 9 9 9
12 12 12 12 12 12 12 12 12 12 12 12 12 11 11 11 11 11 11 11 11 10 10 10 10 10 10 10 10 9 9 9 9 9 9 9 9 9 9 9 9 9 9
12 12 12 12 12 12 12 11 11 11 11 11 11 11 11 11 11 10 10 10 10 10 10 10 10 10 9 9 9 9 9 9 8 8 8 8 8 8 8 8 8 8 8
11 12 12 12 12 11 11 11 11 11 11 11 11 11 11 11 10 10 10 10 10 10 10 10 9 9 9 9 9 9 8 8 8 8 8 8 8 8 8 8 8 8 8
11 11 11 11 11 11 11 11 11 11 11 11 11 11 10 10 10 10 10 10 10 9 9 9 9 9 9 8 8 8 8 8 8 8 8 8 8 8 8 8 8 8 8
11 11 11 11 11 11 11 11 11 11 10 10 10 10 10 10 10 10 10 9 9 9 9 9 9 9 8 8 8 8 8 8 8 7 7 7 7 7 7 7 8 8 8

GEFSGL_850_meantemp_234.txt.gz
Temperature
21 20 20 20 19 19 19 19 19 19 18 18 18 18 18 18 18 17 17 17 17 17 17 17 17 17 17 17 17 17 16 16 16 17 16 16 16 16 16 16 16 16 15
20 20 20 20 19 19 19 19 19 18 18 18 18 18 18 18 17 17 17 17 17 17 17 17 17 17 17 17 17 16 16 16 16 16 16 16 16 16 16 16 15 15 15
20 20 19 19 19 19 19 18 18 18 18 18 18 18 18 17 17 17 17 17 17 16 16 16 16 16 16 16 16 16 16 16 16 16 16 16 16 16 16 15 15 15 15
20 20 19 19 19 19 19 18 18 18 18 18 18 17 17 17 17 17 17 17 16 16 16 16 16 16 16 16 16 16 16 16 16 16 16 16 15 15 15 15 15 15 15
20 19 19 19 19 19 18 18 18 18 18 17 17 17 17 17 17 17 16 16 16 16 16 16 16 16 16 16 16 16 16 15 15 15 15 15 15 15 15 15 15 15 14
19 19 19 19 18 18 18 18 18 18 17 17 17 17 17 17 17 16 16 16 16 16 16 16 16 16 16 16 15 15 15 15 15 15 15 15 15 15 15 15 14 14 14
19 19 18 18 18 18 18 18 17 17 17 17 17 17 16 16 16 16 16 16 16 16 16 16 16 16 15 15 15 15 15 15 15 15 15 15 15 15 15 14 14 14 14
18 18 18 18 17 17 17 17 17 17 16 16 16 16 16 16 16 16 16 16 16 16 16 15 15 15 15 15 15 15 15 15 15 15 15 15 15 14 14 14 14 14 14
17 17 17 17 17 17 16 16 16 16 16 16 16 16 16 16 16 16 15 15 15 15 15 15 15 15 15 15 14 14 14 14 14 14 14 14 14 14 14 13 13 13 13
17 17 17 17 16 16 16 16 16 15 15 15 15 15 15 15 15 15 15 15 15 15 15 15 14 14 14 14 14 14 14 14 14 14 14 14 14 14 13 13 13 13 13
16 16 16 16 16 16 15 15 15 15 15 15 15 15 15 15 15 15 15 15 15 14 14 14 14 14 14 14 14 14 14 14 13 13 13 13 13 13 13 13 13 13 12
16 16 15 15 15 15 15 14 14 14 14 14 14 14 14 14 14 15 15 14 14 14 14 14 14 14 14 13 13 13 13 13 13 13 13 13 13 13 13 12 12 12 12
15 15 15 15 15 14 14 14 14 14 14 14 14 14 14 14 14 14 14 14 14 14 14 14 14 13 13 13 13 13 13 13 12 12 12 12 12 12 12 12 12 12 12
14 14 14 14 14 14 14 14 14 13 13 13 13 13 13 14 14 14 14 14 13 13 13 13 13 13 13 13 13 13 12 12 12 12 12 12 12 12 11 11 11 11 11
14 14 14 13 13 13 13 13 13 13 13 13 13 13 13 13 13 13 13 13 13 13 13 13 13 12 12 12 12 12 12 12 12 12 11 11 11 11 11 11 11 11 11
13 13 13 13 13 13 13 13 13 13 13 13 13 13 13 13 13 13 13 13 13 13 12 12 12 12 12 12 12 12 12 11 11 11 11 11 11 11 11 11 10 10 10
13 13 13 13 13 13 13 13 13 13 13 13 13 13 13 13 13 12 12 12 12 12 12 12 11 11 11 11 11 12 11 11 11 11 11 11 11 11 10 10 10 10 10
13 13 12 12 12 12 12 12 12 12 12 12 12 12 12 12 12 12 12 12 11 11 11 11 11 11 11 11 11 11 11 11 11 11 11 11 11 10 10 10 10 10 9
12 12 12 12 12 12 12 12 12 12 12 12 12 12 12 12 12 12 11 11 11 11 11 11 11 11 11 11 11 11 11 10 10 10 10 10 10 10 10 10 9 9 9
12 12 12 12 12 12 12 12 11 11 11 11 11 11 11 11 11 11 11 11 11 11 11 11 11 11 10 10 10 10 10 10 10 10 10 10 10 10 9 9 9 9 9
12 11 11 11 11 11 11 11 11 11 11 11 11 11 11 11 11 11 11 10 10 10 10 10 10 10 10 10 10 10 10 9 9 9 9 9 9 9 9 9 9 9 9
11 11 11 11 11 11 11 11 11 11 11 11 11 11 11 10 10 10 10 10 10 10 10 10 10 10 10 10 9 9 9 9 9 9 9 9 9 9 9 9 8 8 8
11 11 11 11 11 11 11 11 11 11 11 11 11 10 10 10 10 10 10 10 10 10 10 9 9 9 9 9 9 9 9 9 9 9 9 9 8 8 8 8 8 8 8
11 11 11 11 11 11 11 11 11 11 11 10 10 10 10 10 10 10 10 9 9 9 9 9 9 9 9 9 9 9 9 9 9 9 8 8 8 8 8 8 8 8 8
11 11 11 11 11 11 10 10 10 10 10 10 10 10 10 10 9 9 9 9 9 9 9 9 9 9 8 8 8 8 8 8 8 8 8 8 8 8 8 8 8 8 8
11 11 10 10 10 10 10 10 10 10 10 10 10 10 9 9 9 9 9 9 9 9 8 8 8 8 8 8 8 8 8 8 8 8 7 7 7 7 7 7 7 7 7

GEFSGL_850_meantemp_240.txt.gz
Temperature
20 20 19 19 19 19 18 18 18 18 18 18 18 17 17 17 17 17 17 17 16 16 16 16 16 16 16 16 16 16 16 16 16 16 16 16 16 16 16 16 16 16 15
20 20 19 19 19 19 18 18 18 18 18 18 17 17 17 17 17 17 17 16 16 16 16 16 16 16 16 16 16 16 15 15 15 16 16 16 16 16 16 15 15 15 15
20 19 19 19 19 18 18 18 18 18 17 17 17 17 17 17 17 16 16 16 16 16 16 16 16 16 16 16 15 15 15 15 15 15 15 15 15 15 15 15 15 15 15
19 19 19 19 18 18 18 18 17 17 17 17 17 17 17 17 16 16 16 16 16 16 16 15 15 15 15 15 15 15 15 15 15 15 15 15 15 15 15 15 15 15 15
19 19 18 18 18 18 18 18 17 17 17 17 16 16 16 16 16 16 16 16 16 15 15 15 15 15 15 15 15 15 15 15 15 15 15 15 15 15 15 15 14 14 14
18 18 18 18 18 18 17 17 17 17 17 17 16 16 16 16 16 16 16 16 16 15 15 15 15 15 15 15 15 15 15 15 14 14 14 14 14 14 14 14 14 14 14
18 18 18 17 17 17 17 17 17 17 16 16 16 16 16 16 16 16 15 15 15 15 15 15 15 15 15 15 15 15 15 14 14 14 14 14 14 14 14 14 14 14 14
17 17 17 17 17 17 17 16 16 16 16 16 16 16 16 16 15 15 15 15 15 15 15 15 15 15 15 14 14 14 14 14 14 14 14 14 14 14 14 14 13 13 13
17 17 17 16 16 16 16 16 16 16 16 16 16 15 16 15 15 15 15 15 15 15 15 15 15 15 14 14 14 14 14 14 14 14 13 14 14 13 13 13 13 13 13
16 16 16 16 16 16 16 15 16 15 15 15 15 15 15 15 15 15 14 14 14 14 14 14 14 14 14 14 14 14 14 14 14 13 13 13 13 13 13 13 13 13 12
16 16 15 15 15 15 15 15 15 15 15 14 14 14 14 14 14 14 14 14 14 14 14 14 14 14 14 14 13 13 13 13 13 13 13 13 13 13 13 13 12 12 12
15 15 15 15 15 15 15 14 14 14 14 14 14 14 14 14 14 14 14 14 14 13 13 14 14 14 13 13 13 13 13 12 12 12 12 12 12 12 12 12 12 12 12
15 15 15 14 14 14 14 14 14 14 13 13 13 13 13 13 13 13 13 13 13 13 13 13 13 13 13 13 13 13 12 12 12 12 12 12 12 12 12 12 12 11 11
14 14 14 14 14 14 13 13 13 13 13 13 13 13 13 13 13 13 13 13 13 13 13 13 13 13 13 13 12 12 12 12 12 12 12 12 11 11 11 11 11 11 11
14 14 14 13 13 13 13 13 13 13 13 13 13 13 13 13 13 13 12 13 12 12 12 13 12 12 12 12 12 12 12 12 11 11 11 11 11 11 11 11 10 10 10
13 13 13 13 13 13 12 12 12 12 12 12 12 12 12 12 12 12 12 12 12 12 12 12 12 12 12 12 11 11 11 11 11 11 11 11 11 11 10 10 10 10 10
13 13 12 12 12 12 12 12 12 12 12 12 12 12 12 12 12 12 12 11 11 11 11 11 11 11 11 11 11 11 11 11 11 10 10 11 10 10 10 10 10 10 10
12 12 12 12 12 12 12 12 12 12 12 12 12 11 11 11 11 11 11 11 11 11 11 11 11 10 10 10 10 10 10 10 10 10 10 10 10 10 10 10 10 10 9
12 11 11 11 11 11 11 11 11 11 11 11 11 11 11 11 11 11 11 11 11 10 10 10 10 10 10 10 10 10 10 10 9 10 10 9 9 9 9 9 9 9 9
11 11 11 11 11 11 11 11 11 11 11 11 11 11 11 11 10 10 10 10 10 10 10 10 10 10 10 10 10 9 9 9 9 9 9 9 9 9 9 9 9 9 9
11 11 11 11 11 11 11 11 11 11 11 10 10 10 10 10 10 10 10 10 10 9 9 9 9 9 9 9 9 9 9 9 9 9 9 9 9 9 9 9 9 8 8
11 10 10 10 10 10 10 10 10 10 10 10 10 10 10 10 10 10 9 9 9 9 9 9 9 9 9 9 9 9 9 9 9 9 9 8 8 8 8 8 8 8 8
10 10 10 10 10 10 10 10 10 10 10 10 10 10 10 10 9 9 9 9 9 9 9 9 9 9 9 8 8 8 8 8 8 8 8 8 8 8 8 8 8 8 7
10 10 10 10 10 10 10 10 10 10 9 9 9 9 9 9 9 9 9 9 9 8 8 8 8 8 8 8 8 8 8 8 8 8 8 8 8 8 8 7 7 7 7
10 10 10 10 10 10 10 10 9 9 9 9 9 9 9 9 9 9 9 8 8 8 8 8 8 8 7 7 7 7 7 7 7 7 8 8 7 7 7 7 7 7 7
10 10 10 10 10 9 9 9 9 9 9 9 8 8 8 8 8 8 8 8 8 8 7 7 7 7 7 7 7 7 7 7 7 7 7 7 7 7 7 7 7 7 7

GEFSGL_850_meantemp_246.txt.gz
Temperature
19 19 19 19 19 18 18 18 18 18 18 18 17 17 17 17 17 17 16 16 16 16 16 16 16 16 16 16 16 16 16 16 16 16 16 16 16 16 16 16 15 16 16
19 19 19 19 18 18 18 18 18 18 18 17 17 17 17 17 17 17 16 16 16 16 16 16 16 16 16 16 16 16 16 16 16 16 16 16 15 15 15 15 15 15 15
19 19 19 18 18 18 18 18 18 18 18 17 17 17 17 17 17 16 16 16 16 16 16 16 16 16 16 15 15 16 16 16 15 15 16 15 15 15 15 15 15 15 15
18 18 18 18 18 18 18 18 18 17 17 17 17 17 17 16 16 16 16 16 16 16 16 16 15 15 15 15 15 15 15 15 15 15 15 15 15 15 15 15 15 15 15
18 18 17 17 17 17 17 17 17 17 17 17 17 16 16 16 16 16 16 16 16 15 15 15 15 15 15 15 15 15 15 15 15 15 15 15 15 15 15 15 15 14 14
18 17 17 17 17 17 17 17 17 17 17 17 16 16 16 16 16 16 16 15 15 15 15 15 15 15 15 15 15 15 15 14 14 15 15 15 15 15 14 14 14 14 14
17 17 17 17 17 16 16 16 16 16 16 16 16 16 16 16 15 15 15 15 15 15 15 15 15 15 15 15 15 15 14 14 14 14 14 14 14 14 14 14 14 14 14
17 17 16 16 16 16 16 16 16 16 16 16 16 15 15 15 15 15 15 15 15 15 15 15 15 14 15 14 14 14 14 14 14 14 14 14 14 14 14 14 13 13 13
16 16 16 16 16 15 16 16 16 15 15 15 15 15 15 15 15 15 15 14 14 14 14 14 14 14 14 14 14 14 14 14 14 14 14 14 14 14 13 13 13 13 13
16 16 16 15 15 15 15 15 15 15 15 15 14 14 14 14 14 15 14 14 13 14 14 14 14 14 14 14 14 14 13 14 13 13 13 13 13 13 13 13 13 12 13
16 15 15 15 15 15 15 15 14 14 14 14 14 14 14 14 14 14 14 13 13 13 13 13 14 14 14 14 14 13 13 13 13 13 13 13 13 13 12 12 12 12 12
15 15 15 15 15 14 14 14 14 14 14 14 13 13 13 13 13 13 13 13 13 13 13 13 13 13 14 14 13 13 13 13 13 13 13 12 12 12 12 12 12 12 12
14 14 14 14 14 14 14 14 13 13 13 13 13 13 13 13 13 13 13 13 13 13 13 13 13 13 13 13 13 13 13 12 12 12 12 12 12 12 12 12 12 12 12
14 14 14 14 13 13 13 13 13 13 13 13 13 13 13 13 13 13 13 13 13 13 12 13 13 13 12 12 12 12 12 12 12 12 12 12 11 11 11 11 11 11 11
13 13 13 13 13 13 13 13 13 13 13 13 13 13 13 12 13 13 12 12 12 12 12 12 12 12 12 12 12 12 11 11 11 11 11 11 11 11 11 11 11 11 11
12 12 13 13 13 13 12 12 12 12 12 12 12 12 12 12 12 12 12 12 12 12 12 12 12 12 12 12 12 12 11 11 11 11 11 11 11 11 11 11 11 11 11
12 12 12 12 12 12 12 12 12 12 12 12 12 12 12 12 12 12 12 12 12 11 11 11 11 11 11 11 11 11 11 11 11 11 11 10 10 10 10 10 10 10 10
11 12 12 12 12 12 12 12 12 12 12 11 11 11 11 11 11 12 12 11 11 11 11 11 11 11 10 10 10 10 10 10 10 10 10 10 10 10 10 10 10 10 10
11 11 11 11 11 12 12 12 11 11 11 11 11 11 11 11 11 11 11 11 11 11 11 11 10 10 10 10 10 10 10 10 10 10 10 10 10 10 10 10 10 10 10
11 11 11 11 11 11 11 11 11 11 11 11 11 11 11 11 10 10 10 10 10 10 10 10 10 10 9 9 9 9 9 9 9 9 9 9 9 9 9 9 9 9 9
11 11 11 11 11 11 11 11 11 11 11 11 11 10 10 10 10 10 10 10 10 9 9 9 9 9 9 9 9 9 9 9 9 9 9 9 9 9 9 9 9 9 9
11 11 11 11 11 11 11 11 11 11 10 10 10 10 10 10 10 9 9 9 9 9 9 9 9 9 9 8 8 8 8 8 8 8 8 8 8 8 8 8 9 9 8
11 11 11 11 10 10 10 10 10 10 10 10 10 10 10 9 9 9 9 9 9 9 8 8 8 8 8 8 8 8 8 8 8 8 8 8 8 8 8 8 8 8 8
11 11 11 11 10 10 10 10 10 10 10 10 10 9 9 9 9 9 9 9 8 8 8 8 8 8 7 7 7 7 7 7 7 7 7 7 7 7 7 8 8 8 8
10 10 10 10 10 10 10 10 9 9 9 9 9 9 9 9 9 9 8 8 8 8 8 7 7 7 7 7 7 7 7 7 7 7 7 7 7 7 7 7 7 7 7
10 10 10 10 9 9 9 9 9 9 9 9 9 8 8 8 8 8 8 8 8 7 7 7 7 7 7 7 7 6 6 7 7 7 6 6 6 6 6 6 7 7 7